FENGYUN 1C DEB, 31619

Orbit data source: Space-Track

FENGYUN 1C DEB, 31619 is space debris in SSO originally from a launch on Mon, 10 May 1999 UTC launched from the Taiyaun Space Center, China (TSC). Fengyun 1C debris stems from the Chinese weather satellite Fengyun-1C, which was intentionally destroyed by a Chinese anti-satellite missile in 2007. This event dramatically increased the amount of space debris, with thousands of trackable fragments posing hazards to satellites and human spaceflight. The Fengyun 1C debris cloud has become a focal point in discussions about space sustainability and the need for international regulations to prevent the creation of new debris.

Loading next visibility...
Identifier
31619, 1999-025BZZ
Orbit
SSO
Country
Flag of CNCN / PRC
Related business
Manufacturer
Unknown
Mission
Spacecraft
Bus & Motor
Unknown
Mass
Unknown
Launch date (UTC)
1999-05-10 (27 years ago)
Launch vehicle
Unknown
Launch site
Taiyaun Space Center, China (TSC)
Object type
Payload
Rocket body
Debris
Shape & HBR
Unknown shape, 0.1 m
Radar Cross Section
Small (<0.1 m²)

Expand to show TLE details & history
Last TLE update: 11 hours ago

TLE from 11 hours ago
0 FENGYUN 1C DEB
1 31619U 99025BZZ 26165.35651197  .00089493  00000-0  52635-2 0  9998
2 31619  99.0583  32.1848 0057805  60.4893 300.2079 15.09843408662363
Epoch: 2026-06-14T08:33Z
TLE epoch observation values (Epoch: 2026-06-14T08:33:22.634Z)
Latitude
0.00001°
Longitude
1.18207°
Altitude
519.761 km
Speed
7.615 km/s
True Right ascension
02h 08m 44s
True Declination
0° 00' 00"
Sunlit
Object was in daylight at epoch
Visualization orbit readout
Latitude
Unknown
Longitude
Unknown
Altitude
Unknown
Speed
Unknown
Apparent Right ascension
Unknown
Apparent Declination
Unknown
Sunlit
N/A
Visualization observer readout
Local Sidereal Time
05:46:11
Azimuth
Unknown
Elevation
Unknown
Doppler factor
Unknown
Orbital elements
Apogee altitude
573.689 km
Perigee altitude
493.781 km
Semi-major axis
6,911.872 km
Eccentricity
0.00578
Inclination
99.0583°
RAAN
32.1848°
Arg. of periapsis
60.4893°
True anomaly
299.63337°
Mean anomaly
300.2079°
Eccentric anomaly
299.92085°
Mean motion
3.77702 °/min
Orbital period
95.31 mins
BSTAR
0.0052635
Loading maneuver chart data...
Computing Atmospheric mass density...

Documentation

Showing up to 5 results
|